Powrót do katalogu

FENGYUN 1C DEB

AktywnySSO
NORAD 30677·DEBRIS·🇨🇳 China

Wystrzelony May 10, 1999 z Taiyuan Satellite Launch Center

Loading…

Następne Przeloty (najbliższe 24 godziny)

TLE

ŚwieżeSource: Space-Track

Epoka: Sep 12, 2026, 01:56 UTC

1 30677U 99025AQK 26255.08110689  .00002077  00000-0  65843-3 0  9996
2 30677  98.2343 294.6130 0066309 101.7796 288.7825 14.39775711 19009

Śledź FENGYUN 1C DEB w czasie rzeczywistym z AllMySat

Download on the App Store